TimeMST,TemperatureF,Dew PointF,Humidity,Sea Level PressureIn,VisibilityMPH,Wind Direction,Wind SpeedMPH,Gust SpeedMPH,PrecipitationIn,Events,Conditions,WindDirDegrees,DateUTC
12:54 AM,27.0,16.0,63,30.01,10.0,NNW,5.8,-,N/A,,Clear,340,2013-12-22 07:54:00
1:54 AM,25.0,15.1,66,30.03,10.0,Calm,Calm,-,N/A,,Clear,0,2013-12-22 08:54:00
2:54 AM,19.0,14.0,81,30.08,10.0,Calm,Calm,-,N/A,,Clear,0,2013-12-22 09:54:00
3:54 AM,15.1,12.0,88,30.12,10.0,Calm,Calm,-,N/A,,Clear,0,2013-12-22 10:54:00
4:54 AM,14.0,10.9,88,30.14,10.0,Calm,Calm,-,N/A,,Clear,0,2013-12-22 11:54:00
5:54 AM,10.9,8.1,88,30.18,10.0,Calm,Calm,-,N/A,,Clear,0,2013-12-22 12:54:00
6:54 AM,10.9,8.1,88,30.20,10.0,Calm,Calm,-,N/A,,Clear,0,2013-12-22 13:54:00
7:54 AM,10.0,7.0,87,30.25,10.0,Calm,Calm,-,N/A,,Clear,0,2013-12-22 14:54:00
8:54 AM,19.9,15.1,81,30.24,10.0,Calm,Calm,-,N/A,,Clear,0,2013-12-22 15:54:00
9:54 AM,30.0,19.9,66,30.21,10.0,Calm,Calm,-,N/A,,Clear,0,2013-12-22 16:54:00
10:54 AM,36.0,18.0,48,30.21,10.0,Variable,3.5,-,N/A,,Clear,0,2013-12-22 17:54:00
11:54 AM,39.0,16.0,39,30.19,10.0,WNW,5.8,-,N/A,,Clear,290,2013-12-22 18:54:00
12:54 PM,39.0,18.0,43,30.16,10.0,SW,10.4,17.3,N/A,,Clear,230,2013-12-22 19:54:00
1:54 PM,39.0,16.0,39,30.17,10.0,Variable,5.8,-,N/A,,Clear,0,2013-12-22 20:54:00
2:54 PM,39.0,16.0,39,30.21,10.0,WSW,8.1,-,N/A,,Clear,250,2013-12-22 21:54:00
3:54 PM,39.0,17.1,41,30.24,10.0,West,10.4,-,N/A,,Clear,260,2013-12-22 22:54:00
4:54 PM,36.0,12.9,39,30.29,10.0,Variable,3.5,-,N/A,,Clear,0,2013-12-22 23:54:00
5:54 PM,28.9,15.1,56,30.34,10.0,Calm,Calm,-,N/A,,Clear,0,2013-12-23 00:54:00
6:54 PM,25.0,16.0,69,30.40,10.0,Calm,Calm,-,N/A,,Clear,0,2013-12-23 01:54:00
7:54 PM,21.9,16.0,78,30.44,10.0,Calm,Calm,-,N/A,,Clear,0,2013-12-23 02:54:00
8:54 PM,19.9,15.1,81,30.42,10.0,Calm,Calm,-,N/A,,Clear,0,2013-12-23 03:54:00
9:54 PM,17.1,14.0,88,30.39,10.0,Calm,Calm,-,N/A,,Clear,0,2013-12-23 04:54:00
10:54 PM,17.1,14.0,88,30.38,10.0,Calm,Calm,-,N/A,,Clear,0,2013-12-23 05:54:00
11:54 PM,15.1,12.0,88,30.40,10.0,NE,4.6,-,N/A,,Clear,50,2013-12-23 06:54:00